Hourly Data Report for October 12, 2016

All times are specified in Local Standard Time (LST). Add 1 hour to adjust for Daylight Saving Time where and when it is observed.

PANGNIRTUNG
NUNAVUT

66°08'36.300" N
65°42'40.500" W
22.60 m
2403049
71826
WXP

Download Data

Hourly Data (October 2016)
Hourly Data Report for October 12, 2016
Temp Definition
°C
Dew Point Temp Definition
°C
Rel Hum Definition
%
Wind Dir Definition
10's deg

Wind Spd Definition
km/h
Visibility Definition
km
Stn Press Definition
kPa
Hmdx Definition


Wind Chill Definition


Weather Definition


TIME
00:00 -3.5 -6.0 83 36 1   100.85   -4 LegendNANA
01:00 -3.9 -6.6 82 8 4   100.86   -6 LegendNANA
02:00 -3.5 -6.2 82 25 3   100.89   -5 LegendNANA
03:00 -4.0 -6.6 82 6 5   100.93   -6 LegendNANA
04:00 -3.8 -6.8 80 6 1   100.93   -4 LegendNANA
05:00 -3.1 -6.7 77 24 2   100.94   -4 LegendNANA
06:00 -3.4 -6.6 79 20 1   100.96   -4 LegendNANA
07:00 -2.7 -6.1 78 0 1   100.98   -3 LegendNANA
08:00 -2.6 -5.3 82 9 2   100.99   -3 LegendNANA
09:00 -2.5 -4.8 84 10 7   101.00   -5 LegendNANA
10:00 -2.4 -3.0 96 25 8   101.03   -6 LegendNANA
11:00 -2.4 -2.8 97 25 4   101.05   -4 LegendNANA
12:00 -2.4 -4.0 89 24 16   101.07   -8 LegendNANA
13:00 -2.4 -4.8 84 24 19   101.10   -8 LegendNANA
14:00 -2.8 -7.1 72 22 14   101.15   -8 LegendNANA
15:00
16:00 -3.6 -7.5 74 20 10   101.18   -8 LegendNANA
17:00
18:00 -3.9 -7.4 76 19 11   101.19   -8 LegendNANA
19:00 -4.9 -8.3 77 19 11   101.16   -9 LegendNANA
20:00 -4.9 -8.6 76 18 8   101.14   -8 LegendNANA
21:00 -5.5 -9.4 74 20 7   101.07   -9 LegendNANA
22:00 -5.3 -9.3 73 19 5   101.02   -8 LegendNANA
23:00 -6.0 -9.4 76 17 4   100.97   -8 LegendNANA

Notes on Data Quality.

Legend

  • E = Estimated
  • M = Missing
  • NA = Not Available
  • ‡ = Partner data that is not subject to review by the National Climate Archives
Date modified: